XM-4 (BLUES)

Last updated on June 27, 2019, 3:44 a.m. UTC

1 29520U 06049A   19177.73452122 -.00000015  00000-0  00000+0 0  9994
2 29520   0.0413 188.5485 0000377 256.2714 338.8944  1.00271740 46451
UTC
Height (km)
Latitude
Longitude
Inclination
Orbital Period
UTC large
Height (km)
Speed (km/s)
/
Latitude / Longitude
Inclination (degrees)
Orbital Period (minutes)
Azimuth
Elevation
Range (km)
Doppler Factor
iOS Compass Heading
iOS Angle

Next 30 passes for location: Hong Kong

Rise time Rise Azimuth (degrees) Set time Set Azimuth (degrees) Duration Max altitude (degrees)

No matching passes for this satellites